Time,TemperatureF,DewpointF,PressureIn,WindDirection,WindDirectionDegrees,WindSpeedMPH,WindSpeedGustMPH,Humidity,HourlyPrecipIn,Conditions,Clouds,dailyrainin,SolarRadiationWatts/m^2,SoftwareType,DateUTC
2013-03-04 00:01:00,38.0,18.0,-100.00,ESE,113,5.0,7.0,44,0.00,,,0.00,0.000000,,2013-03-04 07:01:00,
2013-03-04 00:11:00,38.0,18.0,-100.00,ESE,113,5.0,7.0,44,0.00,,,0.00,0.000000,,2013-03-04 07:11:00,
2013-03-04 00:21:00,38.0,18.0,-100.00,ESE,113,5.0,7.0,44,0.00,,,0.00,0.000000,,2013-03-04 07:21:00,
2013-03-04 00:32:00,38.0,18.0,-100.00,ESE,113,5.0,7.0,44,0.00,,,0.00,0.000000,,2013-03-04 07:32:00,
2013-03-04 00:52:00,42.0,19.0,-100.00,North,2,3.0,8.0,39,0.00,,,0.00,0.000000,,2013-03-04 07:52:00,
2013-03-04 01:02:00,42.0,19.0,-100.00,North,2,3.0,8.0,39,0.00,,,0.00,0.000000,,2013-03-04 08:02:00,
2013-03-04 01:11:00,42.0,19.0,-100.00,North,2,3.0,8.0,39,0.00,,,0.00,0.000000,,2013-03-04 08:11:00,
2013-03-04 01:22:00,42.0,19.0,-100.00,North,2,3.0,8.0,39,0.00,,,0.00,0.000000,,2013-03-04 08:22:00,
2013-03-04 01:32:00,42.0,19.0,-100.00,North,2,3.0,8.0,39,0.00,,,0.00,0.000000,,2013-03-04 08:32:00,
2013-03-04 01:52:00,43.0,20.0,-100.00,SW,222,5.0,8.0,40,0.00,,,0.00,0.000000,,2013-03-04 08:52:00,
2013-03-04 02:02:00,43.0,20.0,-100.00,SW,222,5.0,8.0,40,0.00,,,0.00,0.000000,,2013-03-04 09:02:00,
2013-03-04 02:11:00,43.0,20.0,-100.00,SW,222,5.0,8.0,40,0.00,,,0.00,0.000000,,2013-03-04 09:11:00,
2013-03-04 02:21:00,43.0,20.0,-100.00,SW,222,5.0,8.0,40,0.00,,,0.00,0.000000,,2013-03-04 09:21:00,
2013-03-04 02:32:00,43.0,20.0,-100.00,SW,222,5.0,8.0,40,0.00,,,0.00,0.000000,,2013-03-04 09:32:00,
2013-03-04 02:52:00,44.0,23.0,-100.00,WSW,241,9.0,19.0,44,0.00,,,0.00,0.000000,,2013-03-04 09:52:00,
2013-03-04 03:01:00,44.0,23.0,-100.00,WSW,241,9.0,19.0,44,0.00,,,0.00,0.000000,,2013-03-04 10:01:00,
2013-03-04 03:11:00,44.0,23.0,-100.00,WSW,241,9.0,19.0,44,0.00,,,0.00,0.000000,,2013-03-04 10:11:00,
2013-03-04 03:22:00,44.0,23.0,-100.00,WSW,241,9.0,19.0,44,0.00,,,0.00,0.000000,,2013-03-04 10:22:00,
2013-03-04 03:32:00,44.0,23.0,-100.00,WSW,241,9.0,19.0,44,0.00,,,0.00,0.000000,,2013-03-04 10:32:00,
2013-03-04 03:52:00,42.0,23.0,-100.00,SW,229,4.0,21.0,47,0.00,,,0.00,0.000000,,2013-03-04 10:52:00,
2013-03-04 04:02:00,42.0,23.0,-100.00,SW,229,4.0,21.0,47,0.00,,,0.00,0.000000,,2013-03-04 11:02:00,
2013-03-04 04:11:00,42.0,23.0,-100.00,SW,229,4.0,21.0,47,0.00,,,0.00,0.000000,,2013-03-04 11:11:00,
2013-03-04 04:22:00,42.0,23.0,-100.00,SW,229,4.0,21.0,47,0.00,,,0.00,0.000000,,2013-03-04 11:22:00,
2013-03-04 04:32:00,42.0,23.0,-100.00,SW,229,4.0,21.0,47,0.00,,,0.00,0.000000,,2013-03-04 11:32:00,
2013-03-04 04:52:00,41.0,20.0,-100.00,SW,223,3.0,11.0,43,0.00,,,0.00,0.000000,,2013-03-04 11:52:00,
2013-03-04 05:01:00,41.0,20.0,-100.00,SW,223,3.0,11.0,43,0.00,,,0.00,0.000000,,2013-03-04 12:01:00,
2013-03-04 05:11:00,41.0,20.0,-100.00,SW,223,3.0,11.0,43,0.00,,,0.00,0.000000,,2013-03-04 12:11:00,
2013-03-04 05:22:00,41.0,20.0,-100.00,SW,223,3.0,11.0,43,0.00,,,0.00,0.000000,,2013-03-04 12:22:00,
2013-03-04 05:32:00,41.0,20.0,-100.00,SW,223,3.0,11.0,43,0.00,,,0.00,0.000000,,2013-03-04 12:32:00,
2013-03-04 05:53:00,39.0,18.0,-100.00,WNW,294,3.0,9.0,43,0.00,,,0.00,0.000000,,2013-03-04 12:53:00,
2013-03-04 06:02:00,39.0,18.0,-100.00,WNW,294,3.0,9.0,43,0.00,,,0.00,0.000000,,2013-03-04 13:02:00,
2013-03-04 06:11:00,39.0,18.0,-100.00,WNW,294,3.0,9.0,43,0.00,,,0.00,0.000000,,2013-03-04 13:11:00,
2013-03-04 06:21:00,39.0,18.0,-100.00,WNW,294,3.0,9.0,43,0.00,,,0.00,0.000000,,2013-03-04 13:21:00,
2013-03-04 06:32:00,39.0,18.0,-100.00,WNW,294,3.0,9.0,43,0.00,,,0.00,0.000000,,2013-03-04 13:32:00,
2013-03-04 06:52:00,36.0,21.0,-100.00,ENE,73,4.0,8.0,54,0.00,,,0.00,1.000000,,2013-03-04 13:52:00,
2013-03-04 07:01:00,36.0,21.0,-100.00,ENE,73,4.0,8.0,54,0.00,,,0.00,1.000000,,2013-03-04 14:01:00,
2013-03-04 07:11:00,36.0,21.0,-100.00,ENE,73,4.0,8.0,54,0.00,,,0.00,1.000000,,2013-03-04 14:11:00,
2013-03-04 07:22:00,36.0,21.0,-100.00,ENE,73,4.0,8.0,54,0.00,,,0.00,1.000000,,2013-03-04 14:22:00,
2013-03-04 07:32:00,36.0,21.0,-100.00,ENE,73,4.0,8.0,54,0.00,,,0.00,1.000000,,2013-03-04 14:32:00,
2013-03-04 07:52:00,37.0,20.0,-100.00,SSE,159,3.0,5.0,50,0.00,,,0.00,20.000000,,2013-03-04 14:52:00,
2013-03-04 08:01:00,37.0,20.0,-100.00,SSE,159,3.0,5.0,50,0.00,,,0.00,20.000000,,2013-03-04 15:01:00,
2013-03-04 08:11:00,37.0,20.0,-100.00,SSE,159,3.0,5.0,50,0.00,,,0.00,20.000000,,2013-03-04 15:11:00,
2013-03-04 08:22:00,37.0,20.0,-100.00,SSE,159,3.0,5.0,50,0.00,,,0.00,20.000000,,2013-03-04 15:22:00,
2013-03-04 08:32:00,37.0,20.0,-100.00,SSE,159,3.0,5.0,50,0.00,,,0.00,20.000000,,2013-03-04 15:32:00,
2013-03-04 08:52:00,40.0,19.0,-100.00,West,270,3.0,7.0,43,0.00,,,0.00,48.000000,,2013-03-04 15:52:00,
2013-03-04 09:02:00,40.0,19.0,-100.00,West,270,3.0,7.0,43,0.00,,,0.00,48.000000,,2013-03-04 16:02:00,
2013-03-04 09:11:00,40.0,19.0,-100.00,West,270,3.0,7.0,43,0.00,,,0.00,48.000000,,2013-03-04 16:11:00,
2013-03-04 09:21:00,40.0,19.0,-100.00,West,270,3.0,7.0,43,0.00,,,0.00,48.000000,,2013-03-04 16:21:00,
2013-03-04 09:32:00,40.0,19.0,-100.00,West,270,3.0,7.0,43,0.00,,,0.00,48.000000,,2013-03-04 16:32:00,
2013-03-04 09:52:00,42.0,21.0,-100.00,WSW,249,5.0,10.0,43,0.00,,,0.00,75.000000,,2013-03-04 16:52:00,
2013-03-04 10:02:00,42.0,21.0,-100.00,WSW,249,5.0,10.0,43,0.00,,,0.00,75.000000,,2013-03-04 17:02:00,
2013-03-04 10:11:00,42.0,21.0,-100.00,WSW,249,5.0,10.0,43,0.00,,,0.00,75.000000,,2013-03-04 17:11:00,
2013-03-04 10:22:00,42.0,21.0,-100.00,WSW,249,5.0,10.0,43,0.00,,,0.00,75.000000,,2013-03-04 17:22:00,
2013-03-04 10:32:00,42.0,21.0,-100.00,WSW,249,5.0,10.0,43,0.00,,,0.00,75.000000,,2013-03-04 17:32:00,
2013-03-04 10:52:00,44.0,24.0,-100.00,SW,235,8.0,15.0,45,0.00,,,0.00,90.000000,,2013-03-04 17:52:00,
2013-03-04 11:01:00,44.0,24.0,-100.00,SW,235,8.0,15.0,45,0.00,,,0.00,90.000000,,2013-03-04 18:01:00,
2013-03-04 11:11:00,44.0,24.0,-100.00,SW,235,8.0,15.0,45,0.00,,,0.00,90.000000,,2013-03-04 18:11:00,
2013-03-04 11:22:00,44.0,24.0,-100.00,SW,235,8.0,15.0,45,0.00,,,0.00,90.000000,,2013-03-04 18:22:00,
2013-03-04 11:32:00,44.0,24.0,-100.00,SW,235,8.0,15.0,45,0.00,,,0.00,90.000000,,2013-03-04 18:32:00,
2013-03-04 11:52:00,49.0,25.0,-100.00,WSW,243,11.0,20.0,38,0.00,,,0.00,417.000000,,2013-03-04 18:52:00,
2013-03-04 12:02:00,49.0,25.0,-100.00,WSW,243,11.0,20.0,38,0.00,,,0.00,417.000000,,2013-03-04 19:02:00,
2013-03-04 12:11:00,49.0,25.0,-100.00,WSW,243,11.0,20.0,38,0.00,,,0.00,417.000000,,2013-03-04 19:11:00,
2013-03-04 12:22:00,49.0,25.0,-100.00,WSW,243,11.0,20.0,38,0.00,,,0.00,417.000000,,2013-03-04 19:22:00,
2013-03-04 12:32:00,49.0,25.0,-100.00,WSW,243,11.0,20.0,38,0.00,,,0.00,417.000000,,2013-03-04 19:32:00,
2013-03-04 12:52:00,48.0,20.0,-100.00,WSW,246,8.0,21.0,33,0.00,,,0.00,486.000000,,2013-03-04 19:52:00,
2013-03-04 13:02:00,48.0,20.0,-100.00,WSW,246,8.0,21.0,33,0.00,,,0.00,486.000000,,2013-03-04 20:02:00,
2013-03-04 13:11:00,48.0,20.0,-100.00,WSW,246,8.0,21.0,33,0.00,,,0.00,486.000000,,2013-03-04 20:11:00,
2013-03-04 13:22:00,48.0,20.0,-100.00,WSW,246,8.0,21.0,33,0.00,,,0.00,486.000000,,2013-03-04 20:22:00,
2013-03-04 13:32:00,48.0,20.0,-100.00,WSW,246,8.0,21.0,33,0.00,,,0.00,486.000000,,2013-03-04 20:32:00,
2013-03-04 13:53:00,48.0,20.0,-100.00,WSW,257,10.0,21.0,32,0.00,,,0.00,183.000000,,2013-03-04 20:53:00,
2013-03-04 14:02:00,48.0,20.0,-100.00,WSW,257,10.0,21.0,32,0.00,,,0.00,183.000000,,2013-03-04 21:02:00,
2013-03-04 14:12:00,48.0,20.0,-100.00,WSW,257,10.0,21.0,32,0.00,,,0.00,183.000000,,2013-03-04 21:12:00,
2013-03-04 14:22:00,48.0,20.0,-100.00,WSW,257,10.0,21.0,32,0.00,,,0.00,183.000000,,2013-03-04 21:22:00,
2013-03-04 14:32:00,48.0,20.0,-100.00,WSW,257,10.0,21.0,32,0.00,,,0.00,183.000000,,2013-03-04 21:32:00,
2013-03-04 14:53:00,48.0,20.0,-100.00,WSW,238,8.0,24.0,32,0.00,,,0.00,137.000000,,2013-03-04 21:53:00,
2013-03-04 15:02:00,48.0,20.0,-100.00,WSW,238,8.0,24.0,32,0.00,,,0.00,137.000000,,2013-03-04 22:02:00,
2013-03-04 15:12:00,48.0,20.0,-100.00,WSW,238,8.0,24.0,32,0.00,,,0.00,137.000000,,2013-03-04 22:12:00,
2013-03-04 15:22:00,48.0,20.0,-100.00,WSW,238,8.0,24.0,32,0.00,,,0.00,137.000000,,2013-03-04 22:22:00,
2013-03-04 15:32:00,48.0,20.0,-100.00,WSW,238,8.0,24.0,32,0.00,,,0.00,137.000000,,2013-03-04 22:32:00,
2013-03-04 15:52:00,49.0,19.0,-100.00,West,266,8.0,19.0,30,0.00,,,0.00,168.000000,,2013-03-04 22:52:00,
2013-03-04 16:02:00,49.0,19.0,-100.00,West,266,8.0,19.0,30,0.00,,,0.00,168.000000,,2013-03-04 23:02:00,
2013-03-04 16:11:00,49.0,19.0,-100.00,West,266,8.0,19.0,30,0.00,,,0.00,168.000000,,2013-03-04 23:11:00,
2013-03-04 16:22:00,49.0,19.0,-100.00,West,266,8.0,19.0,30,0.00,,,0.00,168.000000,,2013-03-04 23:22:00,
2013-03-04 16:32:00,49.0,19.0,-100.00,West,266,8.0,19.0,30,0.00,,,0.00,168.000000,,2013-03-04 23:32:00,
2013-03-04 16:52:00,52.0,19.0,-100.00,West,260,10.0,22.0,27,0.00,,,0.00,405.000000,,2013-03-04 23:52:00,
2013-03-04 17:02:00,52.0,19.0,-100.00,West,260,10.0,22.0,27,0.00,,,0.00,405.000000,,2013-03-05 00:02:00,
2013-03-04 17:12:00,52.0,19.0,-100.00,West,260,10.0,22.0,27,0.00,,,0.00,405.000000,,2013-03-05 00:12:00,
2013-03-04 17:21:00,52.0,19.0,-100.00,West,260,10.0,22.0,27,0.00,,,0.00,405.000000,,2013-03-05 00:21:00,
2013-03-04 17:32:00,52.0,19.0,-100.00,West,260,10.0,22.0,27,0.00,,,0.00,405.000000,,2013-03-05 00:32:00,
2013-03-04 17:52:00,48.0,19.0,-100.00,West,261,9.0,20.0,31,0.00,,,0.00,117.000000,,2013-03-05 00:52:00,
2013-03-04 18:01:00,48.0,19.0,-100.00,West,261,9.0,20.0,31,0.00,,,0.00,117.000000,,2013-03-05 01:01:00,
2013-03-04 18:12:00,48.0,19.0,-100.00,West,261,9.0,20.0,31,0.00,,,0.00,117.000000,,2013-03-05 01:12:00,
2013-03-04 18:22:00,48.0,19.0,-100.00,West,261,9.0,20.0,31,0.00,,,0.00,117.000000,,2013-03-05 01:22:00,
2013-03-04 18:32:00,48.0,19.0,-100.00,West,261,9.0,20.0,31,0.00,,,0.00,117.000000,,2013-03-05 01:32:00,
2013-03-04 18:52:00,43.0,17.0,-100.00,WNW,283,3.0,15.0,35,0.00,,,0.00,8.000000,,2013-03-05 01:52:00,
2013-03-04 19:01:00,43.0,17.0,-100.00,WNW,283,3.0,15.0,35,0.00,,,0.00,8.000000,,2013-03-05 02:01:00,
2013-03-04 19:11:00,43.0,17.0,-100.00,WNW,283,3.0,15.0,35,0.00,,,0.00,8.000000,,2013-03-05 02:11:00,
2013-03-04 19:22:00,43.0,17.0,-100.00,WNW,283,3.0,15.0,35,0.00,,,0.00,8.000000,,2013-03-05 02:22:00,
2013-03-04 19:32:00,43.0,17.0,-100.00,WNW,283,3.0,15.0,35,0.00,,,0.00,8.000000,,2013-03-05 02:32:00,
2013-03-04 19:52:00,40.0,18.0,-100.00,SW,219,3.0,9.0,40,0.00,,,0.00,0.000000,,2013-03-05 02:52:00,
2013-03-04 20:02:00,40.0,18.0,-100.00,SW,219,3.0,9.0,40,0.00,,,0.00,0.000000,,2013-03-05 03:02:00,
2013-03-04 20:12:00,40.0,18.0,-100.00,SW,219,3.0,9.0,40,0.00,,,0.00,0.000000,,2013-03-05 03:12:00,
2013-03-04 20:22:00,40.0,18.0,-100.00,SW,219,3.0,9.0,40,0.00,,,0.00,0.000000,,2013-03-05 03:22:00,
2013-03-04 20:32:00,40.0,18.0,-100.00,SW,219,3.0,9.0,40,0.00,,,0.00,0.000000,,2013-03-05 03:32:00,
2013-03-04 20:52:00,33.0,16.0,-100.00,NE,49,3.0,6.0,50,0.00,,,0.00,0.000000,,2013-03-05 03:52:00,
2013-03-04 21:02:00,33.0,16.0,-100.00,NE,49,3.0,6.0,50,0.00,,,0.00,0.000000,,2013-03-05 04:02:00,
2013-03-04 21:12:00,33.0,16.0,-100.00,NE,49,3.0,6.0,50,0.00,,,0.00,0.000000,,2013-03-05 04:12:00,
2013-03-04 21:22:00,33.0,16.0,-100.00,NE,49,3.0,6.0,50,0.00,,,0.00,0.000000,,2013-03-05 04:22:00,
2013-03-04 21:32:00,33.0,16.0,-100.00,NE,49,3.0,6.0,50,0.00,,,0.00,0.000000,,2013-03-05 04:32:00,
2013-03-04 21:52:00,35.0,20.0,-100.00,NNW,327,2.0,12.0,54,0.00,,,0.00,0.000000,,2013-03-05 04:52:00,
2013-03-04 22:02:00,35.0,20.0,-100.00,NNW,327,2.0,12.0,54,0.00,,,0.00,0.000000,,2013-03-05 05:02:00,
2013-03-04 22:12:00,35.0,20.0,-100.00,NNW,327,2.0,12.0,54,0.00,,,0.00,0.000000,,2013-03-05 05:12:00,
2013-03-04 22:22:00,35.0,20.0,-100.00,NNW,327,2.0,12.0,54,0.00,,,0.00,0.000000,,2013-03-05 05:22:00,
2013-03-04 22:32:00,35.0,20.0,-100.00,NNW,327,2.0,12.0,54,0.00,,,0.00,0.000000,,2013-03-05 05:32:00,
2013-03-04 22:52:00,32.0,20.0,-100.00,South,173,7.0,10.0,61,0.00,,,0.00,0.000000,,2013-03-05 05:52:00,
2013-03-04 23:01:00,32.0,20.0,-100.00,South,173,7.0,10.0,61,0.00,,,0.00,0.000000,,2013-03-05 06:01:00,
2013-03-04 23:11:00,32.0,20.0,-100.00,South,173,7.0,10.0,61,0.00,,,0.00,0.000000,,2013-03-05 06:11:00,
2013-03-04 23:22:00,32.0,20.0,-100.00,South,173,7.0,10.0,61,0.00,,,0.00,0.000000,,2013-03-05 06:22:00,
2013-03-04 23:32:00,32.0,20.0,-100.00,South,173,7.0,10.0,61,0.00,,,0.00,0.000000,,2013-03-05 06:32:00,
2013-03-04 23:52:00,32.0,19.0,-100.00,South,190,8.0,11.0,59,0.00,,,0.00,0.000000,,2013-03-05 06:52:00,